Time,TemperatureF,DewpointF,PressureIn,WindDirection,WindDirectionDegrees,WindSpeedMPH,WindSpeedGustMPH,Humidity,HourlyPrecipIn,Conditions,Clouds,dailyrainin,SoftwareType,DateUTC
2013-02-09 00:00:00,25.9,20.0,29.73,North,0,0.0,1.8,78,0.00,,,0.00,WUHU216HW,2013-02-09 07:00:00,
2013-02-09 00:05:00,25.7,19.8,29.74,West,270,0.0,1.8,78,0.00,,,0.00,WUHU216HW,2013-02-09 07:05:00,
2013-02-09 00:10:00,25.6,19.6,29.74,West,270,0.0,1.3,78,0.00,,,0.00,WUHU216HW,2013-02-09 07:10:00,
2013-02-09 00:15:00,25.4,19.8,29.74,West,270,0.0,0.7,79,0.00,,,0.00,WUHU216HW,2013-02-09 07:15:00,
2013-02-09 00:20:00,25.0,19.4,29.74,SW,225,0.0,0.2,79,0.00,,,0.00,WUHU216HW,2013-02-09 07:20:00,
2013-02-09 00:25:00,24.8,19.3,29.74,West,270,0.0,1.1,79,0.00,,,0.00,WUHU216HW,2013-02-09 07:25:00,
2013-02-09 00:30:00,24.7,19.1,29.74,West,270,0.0,1.1,79,0.00,,,0.00,WUHU216HW,2013-02-09 07:30:00,
2013-02-09 00:35:00,24.5,18.9,29.74,West,270,0.0,0.4,79,0.00,,,0.00,WUHU216HW,2013-02-09 07:35:00,
2013-02-09 00:40:00,24.3,18.7,29.74,West,270,0.0,0.4,79,0.00,,,0.00,WUHU216HW,2013-02-09 07:40:00,
2013-02-09 00:45:00,24.3,18.7,29.74,West,270,0.4,0.4,79,0.00,,,0.00,WUHU216HW,2013-02-09 07:45:00,
2013-02-09 00:50:00,24.3,18.7,29.74,West,270,0.0,0.4,79,0.00,,,0.00,WUHU216HW,2013-02-09 07:50:00,
2013-02-09 00:55:00,24.3,18.7,29.74,NW,315,0.0,0.4,79,0.00,,,0.00,WUHU216HW,2013-02-09 07:55:00,
2013-02-09 01:00:00,24.1,18.5,29.74,NW,315,0.2,0.4,79,0.00,,,0.00,WUHU216HW,2013-02-09 08:00:00,
2013-02-09 01:05:00,24.1,18.5,29.74,NW,315,0.0,0.2,79,0.00,,,0.00,WUHU216HW,2013-02-09 08:05:00,
2013-02-09 01:10:00,24.1,18.5,29.74,NW,315,0.0,0.2,79,0.00,,,0.00,WUHU216HW,2013-02-09 08:10:00,
2013-02-09 01:15:00,24.1,18.5,29.74,NW,315,0.0,0.2,79,0.00,,,0.00,WUHU216HW,2013-02-09 08:15:00,
2013-02-09 01:20:00,23.8,17.9,29.74,NW,315,0.4,0.4,78,0.00,,,0.00,WUHU216HW,2013-02-09 08:20:00,
2013-02-09 01:25:00,23.8,17.9,29.74,NW,315,0.0,0.4,78,0.00,,,0.00,WUHU216HW,2013-02-09 08:25:00,
2013-02-09 01:30:00,23.6,17.7,29.74,NW,315,0.0,0.4,78,0.00,,,0.00,WUHU216HW,2013-02-09 08:30:00,
2013-02-09 01:35:00,23.6,17.7,29.74,NW,315,0.0,0.4,78,0.00,,,0.00,WUHU216HW,2013-02-09 08:35:00,
2013-02-09 01:40:00,23.4,17.6,29.74,WNW,293,0.4,0.4,78,0.00,,,0.00,WUHU216HW,2013-02-09 08:40:00,
2013-02-09 01:45:00,23.4,17.6,29.74,WNW,293,0.0,0.9,78,0.00,,,0.00,WUHU216HW,2013-02-09 08:45:00,
2013-02-09 01:50:00,23.2,17.4,29.74,WNW,293,0.4,0.9,78,0.00,,,0.00,WUHU216HW,2013-02-09 08:50:00,
2013-02-09 01:55:00,23.2,17.4,29.74,WNW,293,0.0,0.7,78,0.00,,,0.00,WUHU216HW,2013-02-09 08:55:00,
2013-02-09 02:00:00,23.0,17.2,29.74,WNW,293,0.0,0.4,78,0.00,,,0.00,WUHU216HW,2013-02-09 09:00:00,
2013-02-09 02:05:00,22.9,17.4,29.74,WNW,293,0.0,0.4,79,0.00,,,0.00,WUHU216HW,2013-02-09 09:05:00,
2013-02-09 02:10:00,22.7,17.2,29.74,WNW,293,0.0,0.4,79,0.00,,,0.00,WUHU216HW,2013-02-09 09:10:00,
2013-02-09 02:15:00,22.7,16.8,29.74,WNW,293,0.4,0.7,78,0.00,,,0.00,WUHU216HW,2013-02-09 09:15:00,
2013-02-09 02:20:00,22.5,17.0,29.74,WNW,293,0.0,0.7,79,0.00,,,0.00,WUHU216HW,2013-02-09 09:20:00,
2013-02-09 02:25:00,22.5,17.0,29.74,WNW,293,0.0,0.4,79,0.00,,,0.00,WUHU216HW,2013-02-09 09:25:00,
2013-02-09 02:30:00,22.3,16.8,29.74,WNW,293,0.0,0.4,79,0.00,,,0.00,WUHU216HW,2013-02-09 09:30:00,
2013-02-09 02:35:00,22.5,17.0,29.74,WNW,293,0.0,0.4,79,0.00,,,0.00,WUHU216HW,2013-02-09 09:35:00,
2013-02-09 02:40:00,22.5,17.0,29.74,WNW,293,0.0,0.2,79,0.00,,,0.00,WUHU216HW,2013-02-09 09:40:00,
2013-02-09 02:45:00,22.5,17.0,29.74,WNW,293,0.0,0.0,79,0.00,,,0.00,WUHU216HW,2013-02-09 09:45:00,
2013-02-09 02:50:00,22.1,16.7,29.73,WNW,293,0.0,0.0,79,0.00,,,0.00,WUHU216HW,2013-02-09 09:50:00,
2013-02-09 02:55:00,21.8,16.3,29.74,SW,225,0.0,0.7,79,0.00,,,0.00,WUHU216HW,2013-02-09 09:55:00,
2013-02-09 03:00:00,21.2,15.8,29.74,SW,225,0.0,0.7,79,0.00,,,0.00,WUHU216HW,2013-02-09 10:00:00,
2013-02-09 03:05:00,20.9,15.4,29.73,South,180,0.0,0.4,79,0.00,,,0.00,WUHU216HW,2013-02-09 10:05:00,
2013-02-09 03:10:00,20.5,15.3,29.73,SSW,203,0.0,0.4,80,0.00,,,0.00,WUHU216HW,2013-02-09 10:10:00,
2013-02-09 03:15:00,20.3,14.9,29.74,SW,225,0.2,0.4,79,0.00,,,0.00,WUHU216HW,2013-02-09 10:15:00,
2013-02-09 03:20:00,20.5,15.0,29.74,WSW,248,0.0,0.4,79,0.00,,,0.00,WUHU216HW,2013-02-09 10:20:00,
2013-02-09 03:25:00,20.5,15.3,29.74,South,180,0.0,0.7,80,0.00,,,0.00,WUHU216HW,2013-02-09 10:25:00,
2013-02-09 03:30:00,20.5,15.3,29.73,West,270,0.0,0.7,80,0.00,,,0.00,WUHU216HW,2013-02-09 10:30:00,
2013-02-09 03:35:00,20.3,15.1,29.73,SW,225,0.0,0.4,80,0.00,,,0.00,WUHU216HW,2013-02-09 10:35:00,
2013-02-09 03:40:00,20.0,14.8,29.72,WSW,248,0.0,0.4,80,0.00,,,0.00,WUHU216HW,2013-02-09 10:40:00,
2013-02-09 03:45:00,20.0,14.5,29.72,West,270,0.0,0.2,79,0.00,,,0.00,WUHU216HW,2013-02-09 10:45:00,
2013-02-09 03:50:00,20.0,14.8,29.72,West,270,0.0,0.2,80,0.00,,,0.00,WUHU216HW,2013-02-09 10:50:00,
2013-02-09 03:55:00,19.8,14.6,29.72,SW,225,0.0,0.7,80,0.00,,,0.00,WUHU216HW,2013-02-09 10:55:00,
2013-02-09 04:00:00,19.4,14.2,29.72,SSW,203,0.0,0.7,80,0.00,,,0.00,WUHU216HW,2013-02-09 11:00:00,
2013-02-09 04:05:00,19.3,14.0,29.72,SSW,203,0.4,0.9,80,0.00,,,0.00,WUHU216HW,2013-02-09 11:05:00,
2013-02-09 04:10:00,19.1,13.9,29.72,SW,225,0.0,0.9,80,0.00,,,0.00,WUHU216HW,2013-02-09 11:10:00,
2013-02-09 04:15:00,19.1,13.9,29.71,SSW,203,0.0,0.9,80,0.00,,,0.00,WUHU216HW,2013-02-09 11:15:00,
2013-02-09 04:20:00,18.9,13.7,29.71,WSW,248,0.0,0.9,80,0.00,,,0.00,WUHU216HW,2013-02-09 11:20:00,
2013-02-09 04:25:00,18.9,13.7,29.71,SSW,203,0.2,0.9,80,0.00,,,0.00,WUHU216HW,2013-02-09 11:25:00,
2013-02-09 04:30:00,18.7,13.5,29.71,WSW,248,0.2,0.9,80,0.00,,,0.00,WUHU216HW,2013-02-09 11:30:00,
2013-02-09 04:35:00,18.9,13.7,29.71,West,270,0.0,0.4,80,0.00,,,0.00,WUHU216HW,2013-02-09 11:35:00,
2013-02-09 04:39:00,18.9,13.7,29.71,SSW,203,0.0,0.4,80,0.00,,,0.00,WUHU216HW,2013-02-09 11:39:00,
2013-02-09 04:44:00,18.5,13.3,29.72,SW,225,0.0,0.2,80,0.00,,,0.00,WUHU216HW,2013-02-09 11:44:00,
2013-02-09 04:50:00,18.4,13.1,29.71,WSW,248,0.0,0.4,80,0.00,,,0.00,WUHU216HW,2013-02-09 11:50:00,
2013-02-09 04:55:00,18.5,12.7,29.71,West,270,0.2,0.4,78,0.00,,,0.00,WUHU216HW,2013-02-09 11:55:00,
2013-02-09 05:00:00,19.1,13.2,29.71,West,270,0.0,0.4,78,0.00,,,0.00,WUHU216HW,2013-02-09 12:00:00,
2013-02-09 05:04:00,19.3,14.0,29.71,WSW,248,0.4,0.4,80,0.00,,,0.00,WUHU216HW,2013-02-09 12:04:00,
2013-02-09 05:09:00,19.4,14.2,29.71,WSW,248,0.0,0.4,80,0.00,,,0.00,WUHU216HW,2013-02-09 12:09:00,
2013-02-09 05:14:00,19.3,14.0,29.71,WSW,248,0.0,0.4,80,0.00,,,0.00,WUHU216HW,2013-02-09 12:14:00,
2013-02-09 05:19:00,19.1,13.6,29.71,SSW,203,0.4,0.4,79,0.00,,,0.00,WUHU216HW,2013-02-09 12:19:00,
2013-02-09 05:24:00,19.1,13.9,29.71,South,180,0.9,0.9,80,0.00,,,0.00,WUHU216HW,2013-02-09 12:24:00,
2013-02-09 05:29:00,19.1,13.6,29.71,WSW,248,0.0,0.9,79,0.00,,,0.00,WUHU216HW,2013-02-09 12:29:00,
2013-02-09 05:34:00,19.8,14.0,29.71,West,270,0.0,0.9,78,0.00,,,0.00,WUHU216HW,2013-02-09 12:34:00,
2013-02-09 05:39:00,19.4,14.2,29.71,South,180,0.0,1.1,80,0.00,,,0.00,WUHU216HW,2013-02-09 12:39:00,
2013-02-09 05:44:00,18.9,13.7,29.71,SSW,203,0.0,1.1,80,0.00,,,0.00,WUHU216HW,2013-02-09 12:44:00,
2013-02-09 05:49:00,18.7,13.5,29.71,SSW,203,0.0,0.9,80,0.00,,,0.00,WUHU216HW,2013-02-09 12:49:00,
2013-02-09 05:54:00,18.5,13.3,29.71,SSW,203,0.0,0.7,80,0.00,,,0.00,WUHU216HW,2013-02-09 12:54:00,
2013-02-09 05:59:00,18.5,13.3,29.71,WSW,248,0.2,0.9,80,0.00,,,0.00,WUHU216HW,2013-02-09 12:59:00,
2013-02-09 06:04:00,18.4,13.1,29.71,SW,225,0.0,0.9,80,0.00,,,0.00,WUHU216HW,2013-02-09 13:04:00,
2013-02-09 06:09:00,18.4,12.9,29.71,SSW,203,0.0,1.3,79,0.00,,,0.00,WUHU216HW,2013-02-09 13:09:00,
2013-02-09 06:14:00,18.4,12.9,29.71,SSW,203,0.0,1.8,79,0.00,,,0.00,WUHU216HW,2013-02-09 13:14:00,
2013-02-09 06:19:00,18.4,12.9,29.71,SW,225,0.0,1.8,79,0.00,,,0.00,WUHU216HW,2013-02-09 13:19:00,
2013-02-09 06:24:00,18.4,12.9,29.72,SSW,203,0.0,0.9,79,0.00,,,0.00,WUHU216HW,2013-02-09 13:24:00,
2013-02-09 06:29:00,18.4,12.9,29.71,SSW,203,0.0,0.9,79,0.00,,,0.00,WUHU216HW,2013-02-09 13:29:00,
2013-02-09 06:34:00,18.4,12.9,29.71,SSW,203,0.0,0.9,79,0.00,,,0.00,WUHU216HW,2013-02-09 13:34:00,
2013-02-09 06:39:00,18.2,13.0,29.71,South,180,0.0,1.3,80,0.00,,,0.00,WUHU216HW,2013-02-09 13:39:00,
2013-02-09 06:44:00,18.2,12.7,29.71,SSW,203,0.0,1.6,79,0.00,,,0.00,WUHU216HW,2013-02-09 13:44:00,
2013-02-09 06:49:00,17.8,12.6,29.71,SSW,203,1.8,1.8,80,0.00,,,0.00,WUHU216HW,2013-02-09 13:49:00,
2013-02-09 06:54:00,17.6,12.2,29.71,SW,225,0.0,1.8,79,0.00,,,0.00,WUHU216HW,2013-02-09 13:54:00,
2013-02-09 06:59:00,17.6,12.2,29.71,SW,225,0.0,1.8,79,0.00,,,0.00,WUHU216HW,2013-02-09 13:59:00,
2013-02-09 07:04:00,17.6,12.4,29.71,South,180,0.2,1.8,80,0.00,,,0.00,WUHU216HW,2013-02-09 14:04:00,
2013-02-09 07:09:00,17.6,12.2,29.71,South,180,0.0,0.9,79,0.00,,,0.00,WUHU216HW,2013-02-09 14:09:00,
2013-02-09 07:14:00,17.6,12.2,29.71,SSW,203,0.0,0.9,79,0.00,,,0.00,WUHU216HW,2013-02-09 14:14:00,
2013-02-09 07:19:00,18.0,12.3,29.70,WSW,248,0.0,0.0,78,0.00,,,0.00,WUHU216HW,2013-02-09 14:19:00,
2013-02-09 07:24:00,18.9,12.8,29.71,WNW,293,0.0,0.2,77,0.00,,,0.00,WUHU216HW,2013-02-09 14:24:00,
2013-02-09 07:29:00,19.1,13.2,29.71,WNW,293,0.0,0.2,78,0.00,,,0.00,WUHU216HW,2013-02-09 14:29:00,
2013-02-09 07:34:00,19.1,13.2,29.71,South,180,0.7,0.9,78,0.00,,,0.00,WUHU216HW,2013-02-09 14:34:00,
2013-02-09 07:39:00,19.1,13.6,29.71,SSW,203,0.2,0.9,79,0.00,,,0.00,WUHU216HW,2013-02-09 14:39:00,
2013-02-09 07:44:00,18.9,13.4,29.71,SSW,203,0.0,0.7,79,0.00,,,0.00,WUHU216HW,2013-02-09 14:44:00,
2013-02-09 07:49:00,19.3,13.4,29.71,West,270,0.0,0.4,78,0.00,,,0.00,WUHU216HW,2013-02-09 14:49:00,
2013-02-09 07:54:00,19.8,14.0,29.71,West,270,0.0,0.7,78,0.00,,,0.00,WUHU216HW,2013-02-09 14:54:00,
2013-02-09 07:59:00,20.0,14.1,29.72,West,270,0.0,0.7,78,0.00,,,0.00,WUHU216HW,2013-02-09 14:59:00,
2013-02-09 08:04:00,20.2,14.3,29.72,West,270,0.0,0.4,78,0.00,,,0.00,WUHU216HW,2013-02-09 15:04:00,
2013-02-09 08:09:00,20.3,14.9,29.72,West,270,0.0,0.4,79,0.00,,,0.00,WUHU216HW,2013-02-09 15:09:00,
2013-02-09 08:14:00,20.0,14.5,29.73,South,180,1.1,1.1,79,0.00,,,0.00,WUHU216HW,2013-02-09 15:14:00,
2013-02-09 08:19:00,19.8,14.3,29.73,WSW,248,0.2,1.1,79,0.00,,,0.00,WUHU216HW,2013-02-09 15:19:00,
2013-02-09 08:24:00,20.0,14.5,29.73,WSW,248,0.4,1.1,79,0.00,,,0.00,WUHU216HW,2013-02-09 15:24:00,
2013-02-09 08:29:00,20.2,14.3,29.73,SW,225,0.0,1.1,78,0.00,,,0.00,WUHU216HW,2013-02-09 15:29:00,
2013-02-09 08:34:00,20.5,14.7,29.73,West,270,0.0,1.1,78,0.00,,,0.00,WUHU216HW,2013-02-09 15:34:00,
2013-02-09 08:39:00,20.7,15.2,29.73,WSW,248,0.0,0.4,79,0.00,,,0.00,WUHU216HW,2013-02-09 15:39:00,
2013-02-09 08:44:00,20.9,15.4,29.73,WSW,248,0.0,0.4,79,0.00,,,0.00,WUHU216HW,2013-02-09 15:44:00,
2013-02-09 08:49:00,21.4,15.6,29.73,South,180,0.7,0.7,78,0.00,,,0.00,WUHU216HW,2013-02-09 15:49:00,
2013-02-09 08:54:00,22.1,16.3,29.72,SSW,203,0.0,0.9,78,0.00,,,0.00,WUHU216HW,2013-02-09 15:54:00,
2013-02-09 08:59:00,22.9,17.4,29.72,SSW,203,0.4,2.2,79,0.00,,,0.00,WUHU216HW,2013-02-09 15:59:00,
2013-02-09 09:04:00,23.0,17.6,29.71,SSE,158,1.3,2.2,79,0.00,,,0.00,WUHU216HW,2013-02-09 16:04:00,
2013-02-09 09:09:00,23.4,17.9,29.71,South,180,0.9,2.2,79,0.00,,,0.00,WUHU216HW,2013-02-09 16:09:00,
2013-02-09 09:14:00,24.5,19.3,29.71,SE,135,0.0,2.9,80,0.00,,,0.00,WUHU216HW,2013-02-09 16:14:00,
2013-02-09 09:19:00,25.4,20.1,29.71,SSW,203,0.0,2.9,80,0.00,,,0.00,WUHU216HW,2013-02-09 16:19:00,
2013-02-09 09:24:00,25.9,20.3,29.71,SE,135,1.3,1.8,79,0.00,,,0.00,WUHU216HW,2013-02-09 16:24:00,
2013-02-09 09:29:00,26.3,20.6,29.71,South,180,2.7,2.7,79,0.00,,,0.00,WUHU216HW,2013-02-09 16:29:00,
2013-02-09 09:35:00,26.6,20.6,29.71,South,180,1.6,6.0,78,0.00,,,0.00,WUHU216HW,2013-02-09 16:35:00,
2013-02-09 09:40:00,27.0,20.7,29.72,NNW,338,0.4,6.0,77,0.00,,,0.00,WUHU216HW,2013-02-09 16:40:00,
2013-02-09 09:45:00,27.2,20.9,29.72,SSW,203,0.0,3.4,77,0.00,,,0.00,WUHU216HW,2013-02-09 16:45:00,
2013-02-09 09:50:00,27.0,20.3,29.72,SE,135,2.0,4.0,76,0.00,,,0.00,WUHU216HW,2013-02-09 16:50:00,
2013-02-09 09:55:00,27.0,20.7,29.72,ESE,113,0.0,4.0,77,0.00,,,0.00,WUHU216HW,2013-02-09 16:55:00,
2013-02-09 10:00:00,27.0,20.3,29.72,SSE,158,0.7,3.1,76,0.00,,,0.00,WUHU216HW,2013-02-09 17:00:00,
2013-02-09 10:05:00,27.0,20.7,29.71,SSW,203,0.9,1.6,77,0.00,,,0.00,WUHU216HW,2013-02-09 17:05:00,
2013-02-09 10:10:00,27.0,20.1,29.71,South,180,2.5,2.7,75,0.00,,,0.00,WUHU216HW,2013-02-09 17:10:00,
2013-02-09 10:15:00,27.2,20.5,29.71,SSW,203,1.1,2.7,76,0.00,,,0.00,WUHU216HW,2013-02-09 17:15:00,
2013-02-09 10:20:00,27.2,20.5,29.71,SW,225,0.0,3.4,76,0.00,,,0.00,WUHU216HW,2013-02-09 17:20:00,
2013-02-09 10:25:00,27.5,20.9,29.72,NNE,23,0.0,3.4,76,0.00,,,0.00,WUHU216HW,2013-02-09 17:25:00,
2013-02-09 10:30:00,27.7,20.8,29.72,SE,135,0.7,2.5,75,0.00,,,0.00,WUHU216HW,2013-02-09 17:30:00,
2013-02-09 10:35:00,27.7,20.8,29.71,SE,135,2.2,2.7,75,0.00,,,0.00,WUHU216HW,2013-02-09 17:35:00,
2013-02-09 10:40:00,27.9,21.2,29.71,NE,45,0.4,2.7,76,0.00,,,0.00,WUHU216HW,2013-02-09 17:40:00,
2013-02-09 10:45:00,28.1,21.4,29.71,SE,135,0.0,2.2,76,0.00,,,0.00,WUHU216HW,2013-02-09 17:45:00,
2013-02-09 10:50:00,28.3,21.6,29.71,ENE,68,1.1,2.9,76,0.00,,,0.00,WUHU216HW,2013-02-09 17:50:00,
2013-02-09 10:55:00,28.4,21.8,29.71,ESE,113,0.2,2.9,76,0.00,,,0.00,WUHU216HW,2013-02-09 17:55:00,
2013-02-09 11:00:00,28.4,20.9,29.70,SSE,158,1.8,2.9,73,0.00,,,0.00,WUHU216HW,2013-02-09 18:00:00,
2013-02-09 11:05:00,28.4,21.5,29.70,SSW,203,0.2,2.9,75,0.00,,,0.00,WUHU216HW,2013-02-09 18:05:00,
2013-02-09 11:10:00,28.8,21.5,29.70,ESE,113,0.0,2.9,74,0.00,,,0.00,WUHU216HW,2013-02-09 18:10:00,
2013-02-09 11:15:00,29.0,21.4,29.70,SSE,158,2.2,2.9,73,0.00,,,0.00,WUHU216HW,2013-02-09 18:15:00,
2013-02-09 11:20:00,28.8,21.5,29.70,West,270,0.2,2.5,74,0.00,,,0.00,WUHU216HW,2013-02-09 18:20:00,
2013-02-09 11:25:00,28.8,21.3,29.70,South,180,1.8,2.5,73,0.00,,,0.00,WUHU216HW,2013-02-09 18:25:00,
2013-02-09 11:30:00,28.6,21.1,29.70,SE,135,1.6,2.5,73,0.00,,,0.00,WUHU216HW,2013-02-09 18:30:00,
2013-02-09 11:35:00,28.6,21.3,29.70,SW,225,0.2,2.9,74,0.00,,,0.00,WUHU216HW,2013-02-09 18:35:00,
2013-02-09 11:40:00,28.6,21.3,29.70,SSE,158,0.4,2.9,74,0.00,,,0.00,WUHU216HW,2013-02-09 18:40:00,
2013-02-09 11:45:00,28.8,21.3,29.70,SSE,158,0.2,2.2,73,0.00,,,0.00,WUHU216HW,2013-02-09 18:45:00,
2013-02-09 11:50:00,29.2,21.9,29.70,NNE,23,0.0,2.2,74,0.00,,,0.00,WUHU216HW,2013-02-09 18:50:00,
2013-02-09 11:55:00,29.2,21.6,29.70,NE,45,1.6,2.7,73,0.00,,,0.00,WUHU216HW,2013-02-09 18:55:00,
2013-02-09 12:00:00,29.2,21.9,29.70,NE,45,1.1,2.7,74,0.00,,,0.00,WUHU216HW,2013-02-09 19:00:00,
2013-02-09 12:05:00,29.2,21.9,29.70,NE,45,1.1,2.7,74,0.00,,,0.00,WUHU216HW,2013-02-09 19:05:00,
2013-02-09 12:10:00,28.8,21.3,29.70,North,0,1.3,2.7,73,0.00,,,0.00,WUHU216HW,2013-02-09 19:10:00,
2013-02-09 12:15:00,28.4,21.3,29.70,NNE,23,0.4,2.0,74,0.00,,,0.00,WUHU216HW,2013-02-09 19:15:00,
2013-02-09 12:20:00,28.3,21.1,29.70,NNE,23,0.0,2.0,74,0.00,,,0.00,WUHU216HW,2013-02-09 19:20:00,
2013-02-09 12:25:00,28.3,21.3,29.70,NNE,23,2.9,3.1,75,0.00,,,0.00,WUHU216HW,2013-02-09 19:25:00,
2013-02-09 12:30:00,28.3,21.3,29.70,NNW,338,0.0,3.1,75,0.00,,,0.00,WUHU216HW,2013-02-09 19:30:00,
2013-02-09 12:35:00,28.1,21.2,29.69,North,0,0.0,2.9,75,0.00,,,0.00,WUHU216HW,2013-02-09 19:35:00,
2013-02-09 12:40:00,28.1,21.2,29.69,NE,45,0.0,1.3,75,0.00,,,0.00,WUHU216HW,2013-02-09 19:40:00,
2013-02-09 12:45:00,28.4,21.8,29.69,NE,45,0.0,1.1,76,0.00,,,0.00,WUHU216HW,2013-02-09 19:45:00,
2013-02-09 12:50:00,28.4,21.5,29.69,NNE,23,0.9,1.1,75,0.00,,,0.00,WUHU216HW,2013-02-09 19:50:00,
2013-02-09 12:55:00,28.4,21.5,29.69,North,0,0.0,2.0,75,0.00,,,0.00,WUHU216HW,2013-02-09 19:55:00,
2013-02-09 13:00:00,28.4,21.5,29.69,North,0,0.0,2.0,75,0.00,,,0.00,WUHU216HW,2013-02-09 20:00:00,
2013-02-09 13:05:00,28.8,22.1,29.69,ENE,68,0.0,1.3,76,0.00,,,0.00,WUHU216HW,2013-02-09 20:05:00,
2013-02-09 13:10:00,28.8,21.9,29.69,NE,45,0.0,1.3,75,0.00,,,0.00,WUHU216HW,2013-02-09 20:10:00,
2013-02-09 13:15:00,28.8,21.9,29.69,NE,45,0.0,1.3,75,0.00,,,0.00,WUHU216HW,2013-02-09 20:15:00,
2013-02-09 13:20:00,28.8,21.9,29.69,North,0,0.0,1.3,75,0.00,,,0.00,WUHU216HW,2013-02-09 20:20:00,
2013-02-09 13:25:00,28.8,21.9,29.69,NNE,23,0.0,0.9,75,0.00,,,0.00,WUHU216HW,2013-02-09 20:25:00,
2013-02-09 13:30:00,28.8,21.9,29.69,NNE,23,0.0,0.7,75,0.00,,,0.00,WUHU216HW,2013-02-09 20:30:00,
2013-02-09 13:35:00,28.6,21.7,29.69,North,0,0.9,1.1,75,0.00,,,0.00,WUHU216HW,2013-02-09 20:35:00,
2013-02-09 13:40:00,28.4,21.5,29.69,North,0,0.0,1.1,75,0.00,,,0.00,WUHU216HW,2013-02-09 20:40:00,
2013-02-09 13:45:00,28.4,21.5,29.69,SE,135,0.0,1.1,75,0.00,,,0.00,WUHU216HW,2013-02-09 20:45:00,
2013-02-09 13:50:00,28.8,22.1,29.69,NE,45,0.0,0.9,76,0.00,,,0.00,WUHU216HW,2013-02-09 20:50:00,
2013-02-09 13:55:00,29.0,22.1,29.69,ENE,68,0.7,1.1,75,0.00,,,0.00,WUHU216HW,2013-02-09 20:55:00,
2013-02-09 14:00:00,29.2,22.2,29.69,NNE,23,0.0,1.1,75,0.00,,,0.00,WUHU216HW,2013-02-09 21:00:00,
2013-02-09 14:05:00,29.3,22.4,29.69,North,0,0.0,1.1,75,0.00,,,0.00,WUHU216HW,2013-02-09 21:05:00,
2013-02-09 14:10:00,29.2,22.2,29.69,NNE,23,0.7,1.1,75,0.00,,,0.00,WUHU216HW,2013-02-09 21:10:00,
2013-02-09 14:15:00,29.2,22.2,29.69,North,0,1.6,1.6,75,0.00,,,0.00,WUHU216HW,2013-02-09 21:15:00,
2013-02-09 14:20:00,28.6,21.7,29.69,North,0,0.4,2.5,75,0.00,,,0.00,WUHU216HW,2013-02-09 21:20:00,
2013-02-09 14:25:00,28.4,21.5,29.69,North,0,0.0,2.5,75,0.00,,,0.00,WUHU216HW,2013-02-09 21:25:00,
2013-02-09 14:30:00,28.4,21.8,29.69,NE,45,0.0,1.1,76,0.00,,,0.00,WUHU216HW,2013-02-09 21:30:00,
2013-02-09 14:35:00,28.4,21.8,29.69,NNE,23,0.4,1.1,76,0.00,,,0.00,WUHU216HW,2013-02-09 21:35:00,
2013-02-09 14:40:00,28.4,22.2,29.69,NNE,23,0.0,0.9,77,0.00,,,0.00,WUHU216HW,2013-02-09 21:40:00,
2013-02-09 14:45:00,28.3,22.0,29.69,NE,45,0.2,1.3,77,0.00,,,0.00,WUHU216HW,2013-02-09 21:45:00,
2013-02-09 14:50:00,28.3,22.0,29.69,NE,45,0.9,1.6,77,0.00,,,0.00,WUHU216HW,2013-02-09 21:50:00,
2013-02-09 14:55:00,28.1,21.8,29.69,NE,45,0.0,1.6,77,0.00,,,0.00,WUHU216HW,2013-02-09 21:55:00,
2013-02-09 15:00:00,27.9,21.9,29.69,North,0,0.4,1.1,78,0.00,,,0.00,WUHU216HW,2013-02-09 22:00:00,
2013-02-09 15:05:00,27.9,21.9,29.70,ENE,68,0.2,0.7,78,0.00,,,0.00,WUHU216HW,2013-02-09 22:05:00,
2013-02-09 15:10:00,27.7,21.7,29.70,North,0,0.0,1.1,78,0.00,,,0.00,WUHU216HW,2013-02-09 22:10:00,
2013-02-09 15:15:00,27.5,21.5,29.70,NNE,23,0.4,1.3,78,0.00,,,0.00,WUHU216HW,2013-02-09 22:15:00,
2013-02-09 15:20:00,27.5,21.9,29.70,North,0,1.8,1.8,79,0.00,,,0.00,WUHU216HW,2013-02-09 22:20:00,
2013-02-09 15:25:00,27.4,21.3,29.71,NW,315,1.1,1.8,78,0.00,,,0.00,WUHU216HW,2013-02-09 22:25:00,
2013-02-09 15:30:00,27.2,21.5,29.71,North,0,0.7,1.8,79,0.00,,,0.00,WUHU216HW,2013-02-09 22:30:00,
2013-02-09 15:35:00,27.0,21.3,29.71,North,0,0.4,1.1,79,0.00,,,0.00,WUHU216HW,2013-02-09 22:35:00,
2013-02-09 15:40:00,27.0,21.3,29.71,North,0,0.7,1.1,79,0.00,,,0.00,WUHU216HW,2013-02-09 22:40:00,
2013-02-09 15:45:00,27.0,21.3,29.71,NNE,23,0.2,1.6,79,0.00,,,0.00,WUHU216HW,2013-02-09 22:45:00,
2013-02-09 15:50:00,26.8,21.2,29.71,NNE,23,0.0,1.8,79,0.00,,,0.00,WUHU216HW,2013-02-09 22:50:00,
2013-02-09 15:55:00,26.6,21.0,29.72,North,0,0.0,1.8,79,0.00,,,0.00,WUHU216HW,2013-02-09 22:55:00,
2013-02-09 16:00:00,26.8,21.2,29.72,NNE,23,0.0,0.4,79,0.00,,,0.00,WUHU216HW,2013-02-09 23:00:00,
2013-02-09 16:05:00,27.0,21.3,29.72,NE,45,0.0,0.7,79,0.00,,,0.00,WUHU216HW,2013-02-09 23:05:00,
2013-02-09 16:10:00,27.0,21.3,29.72,NE,45,0.7,0.7,79,0.00,,,0.00,WUHU216HW,2013-02-09 23:10:00,
2013-02-09 16:15:00,27.2,21.5,29.73,NNE,23,0.7,0.7,79,0.00,,,0.00,WUHU216HW,2013-02-09 23:15:00,
2013-02-09 16:20:00,27.2,21.5,29.73,NE,45,0.0,0.7,79,0.00,,,0.00,WUHU216HW,2013-02-09 23:20:00,
2013-02-09 16:25:00,27.2,21.5,29.73,North,0,0.0,0.4,79,0.00,,,0.00,WUHU216HW,2013-02-09 23:25:00,
2013-02-09 16:30:00,27.2,21.5,29.73,WNW,293,0.0,0.4,79,0.00,,,0.00,WUHU216HW,2013-02-09 23:30:00,
2013-02-09 16:35:00,27.4,21.7,29.73,WNW,293,0.0,0.0,79,0.00,,,0.00,WUHU216HW,2013-02-09 23:35:00,
2013-02-09 16:40:00,27.4,21.7,29.73,WNW,293,0.0,0.0,79,0.00,,,0.00,WUHU216HW,2013-02-09 23:40:00,
2013-02-09 16:45:00,27.2,21.5,29.73,WNW,293,0.0,0.0,79,0.00,,,0.00,WUHU216HW,2013-02-09 23:45:00,
2013-02-09 16:50:00,27.0,21.3,29.73,WNW,293,0.0,0.0,79,0.00,,,0.00,WUHU216HW,2013-02-09 23:50:00,
2013-02-09 16:55:00,27.0,21.3,29.73,WNW,293,0.0,0.0,79,0.00,,,0.00,WUHU216HW,2013-02-09 23:55:00,
2013-02-09 17:00:00,26.6,21.0,29.73,WNW,293,0.0,0.0,79,0.00,,,0.00,WUHU216HW,2013-02-10 00:00:00,
2013-02-09 17:05:00,26.5,20.8,29.74,WNW,293,0.0,0.0,79,0.00,,,0.00,WUHU216HW,2013-02-10 00:05:00,
2013-02-09 17:10:00,26.5,20.8,29.74,WNW,293,0.0,0.0,79,0.00,,,0.00,WUHU216HW,2013-02-10 00:10:00,
2013-02-09 17:13:00,26.5,20.8,29.74,WNW,293,0.0,0.0,79,0.00,,,0.00,WUHU216HW,2013-02-10 00:13:00,
2013-02-09 17:14:00,26.5,20.8,29.74,WNW,293,0.0,0.0,79,0.00,,,0.00,WUHU216HW,2013-02-10 00:14:00,
2013-02-09 17:15:00,26.3,20.6,29.74,WNW,293,0.0,0.0,79,0.00,,,0.00,WUHU216HW,2013-02-10 00:15:00,
2013-02-09 17:25:00,25.9,20.3,29.74,WNW,293,0.0,0.0,79,0.00,,,0.00,WUHU216HW,2013-02-10 00:25:00,
2013-02-09 17:27:00,25.9,20.3,29.74,WNW,293,0.0,0.0,79,0.00,,,0.00,WUHU216HW,2013-02-10 00:27:00,
2013-02-09 17:30:00,25.9,20.3,29.74,WNW,293,0.0,0.0,79,0.00,,,0.00,WUHU216HW,2013-02-10 00:30:00,
2013-02-09 17:35:00,25.9,20.3,29.74,WNW,293,0.0,0.0,79,0.00,,,0.00,WUHU216HW,2013-02-10 00:35:00,
2013-02-09 17:57:00,24.5,18.9,29.75,SSW,203,0.0,0.0,79,0.00,,,0.00,WUHU216HW,2013-02-10 00:57:00,
2013-02-09 18:00:00,24.5,18.9,29.75,SSW,203,0.0,0.0,79,0.00,,,0.00,WUHU216HW,2013-02-10 01:00:00,
2013-02-09 18:02:00,24.5,18.9,29.75,SSW,203,0.0,0.0,79,0.00,,,0.00,WUHU216HW,2013-02-10 01:02:00,
2013-02-09 18:07:00,24.5,18.9,29.75,SSW,203,0.0,0.0,79,0.00,,,0.00,WUHU216HW,2013-02-10 01:07:00,
2013-02-09 18:30:00,23.2,17.4,29.76,South,180,0.0,0.0,78,0.00,,,0.00,WUHU216HW,2013-02-10 01:30:00,
2013-02-09 18:35:00,23.0,17.2,29.76,South,180,0.4,0.7,78,0.00,,,0.00,WUHU216HW,2013-02-10 01:35:00,
2013-02-09 18:40:00,22.9,16.8,29.77,South,180,0.4,0.7,77,0.00,,,0.00,WUHU216HW,2013-02-10 01:40:00,
2013-02-09 18:45:00,22.7,16.8,29.77,South,180,0.0,0.4,78,0.00,,,0.00,WUHU216HW,2013-02-10 01:45:00,
2013-02-09 18:50:00,22.5,16.4,29.77,South,180,0.4,0.4,77,0.00,,,0.00,WUHU216HW,2013-02-10 01:50:00,
2013-02-09 18:55:00,22.5,16.7,29.77,South,180,0.0,0.7,78,0.00,,,0.00,WUHU216HW,2013-02-10 01:55:00,
2013-02-09 19:00:00,22.5,16.4,29.77,South,180,0.0,0.7,77,0.00,,,0.00,WUHU216HW,2013-02-10 02:00:00,
2013-02-09 19:05:00,22.3,16.2,29.77,South,180,0.0,0.4,77,0.00,,,0.00,WUHU216HW,2013-02-10 02:05:00,
2013-02-09 19:10:00,22.3,16.2,29.78,South,180,0.4,0.4,77,0.00,,,0.00,WUHU216HW,2013-02-10 02:10:00,
2013-02-09 19:15:00,22.1,16.0,29.77,South,180,0.0,0.4,77,0.00,,,0.00,WUHU216HW,2013-02-10 02:15:00,
2013-02-09 19:20:00,22.0,15.9,29.78,South,180,0.0,0.4,77,0.00,,,0.00,WUHU216HW,2013-02-10 02:20:00,
2013-02-09 19:25:00,22.0,15.9,29.78,South,180,0.0,0.0,77,0.00,,,0.00,WUHU216HW,2013-02-10 02:25:00,
2013-02-09 19:30:00,22.0,15.9,29.78,South,180,0.0,0.0,77,0.00,,,0.00,WUHU216HW,2013-02-10 02:30:00,
2013-02-09 19:35:00,22.0,15.9,29.78,South,180,0.0,0.0,77,0.00,,,0.00,WUHU216HW,2013-02-10 02:35:00,
2013-02-09 19:40:00,22.0,15.9,29.78,South,180,0.0,0.0,77,0.00,,,0.00,WUHU216HW,2013-02-10 02:40:00,
2013-02-09 19:45:00,22.0,15.9,29.78,South,180,0.0,0.0,77,0.00,,,0.00,WUHU216HW,2013-02-10 02:45:00,
2013-02-09 19:50:00,22.0,15.9,29.78,South,180,0.0,0.4,77,0.00,,,0.00,WUHU216HW,2013-02-10 02:50:00,
2013-02-09 19:55:00,22.0,15.9,29.79,South,180,0.0,0.4,77,0.00,,,0.00,WUHU216HW,2013-02-10 02:55:00,
2013-02-09 20:00:00,22.0,15.9,29.79,South,180,0.0,0.0,77,0.00,,,0.00,WUHU216HW,2013-02-10 03:00:00,
2013-02-09 20:05:00,22.0,15.9,29.79,South,180,0.0,0.0,77,0.00,,,0.00,WUHU216HW,2013-02-10 03:05:00,
2013-02-09 20:10:00,22.0,15.9,29.79,South,180,0.0,0.0,77,0.00,,,0.00,WUHU216HW,2013-02-10 03:10:00,
2013-02-09 20:15:00,22.0,15.9,29.79,South,180,0.0,0.0,77,0.00,,,0.00,WUHU216HW,2013-02-10 03:15:00,
2013-02-09 20:20:00,22.0,15.9,29.79,South,180,0.0,0.0,77,0.00,,,0.00,WUHU216HW,2013-02-10 03:20:00,
2013-02-09 20:25:00,22.1,16.0,29.80,South,180,0.0,0.0,77,0.00,,,0.00,WUHU216HW,2013-02-10 03:25:00,
2013-02-09 20:30:00,22.0,15.9,29.80,South,180,0.0,0.0,77,0.00,,,0.00,WUHU216HW,2013-02-10 03:30:00,
2013-02-09 20:35:00,22.0,15.9,29.80,South,180,0.0,0.2,77,0.00,,,0.00,WUHU216HW,2013-02-10 03:35:00,
2013-02-09 20:40:00,22.0,15.9,29.81,South,180,0.0,0.2,77,0.00,,,0.00,WUHU216HW,2013-02-10 03:40:00,
2013-02-09 20:45:00,21.8,15.7,29.81,South,180,0.0,0.0,77,0.00,,,0.00,WUHU216HW,2013-02-10 03:45:00,
2013-02-09 20:50:00,21.8,15.7,29.81,South,180,0.0,0.0,77,0.00,,,0.00,WUHU216HW,2013-02-10 03:50:00,
2013-02-09 20:55:00,21.8,15.7,29.81,South,180,0.0,0.0,77,0.00,,,0.00,WUHU216HW,2013-02-10 03:55:00,
2013-02-09 21:00:00,21.6,15.5,29.81,South,180,0.0,0.0,77,0.00,,,0.00,WUHU216HW,2013-02-10 04:00:00,
2013-02-09 21:05:00,21.6,15.5,29.81,South,180,0.0,0.2,77,0.00,,,0.00,WUHU216HW,2013-02-10 04:05:00,
2013-02-09 21:10:00,21.6,15.5,29.81,South,180,0.0,0.2,77,0.00,,,0.00,WUHU216HW,2013-02-10 04:10:00,
2013-02-09 21:15:00,21.4,15.3,29.81,South,180,0.0,0.0,77,0.00,,,0.00,WUHU216HW,2013-02-10 04:15:00,
2013-02-09 21:20:00,21.6,15.5,29.81,South,180,0.0,0.2,77,0.00,,,0.00,WUHU216HW,2013-02-10 04:20:00,
2013-02-09 21:25:00,21.6,15.5,29.81,South,180,0.0,0.2,77,0.00,,,0.00,WUHU216HW,2013-02-10 04:25:00,
2013-02-09 21:30:00,21.8,15.3,29.81,South,180,0.0,0.0,76,0.00,,,0.00,WUHU216HW,2013-02-10 04:30:00,
2013-02-09 21:35:00,22.0,15.5,29.82,South,180,0.4,0.4,76,0.00,,,0.00,WUHU216HW,2013-02-10 04:35:00,
2013-02-09 21:40:00,21.8,15.7,29.82,SSW,203,0.0,0.4,77,0.00,,,0.00,WUHU216HW,2013-02-10 04:40:00,
2013-02-09 21:45:00,21.8,15.0,29.82,South,180,0.9,0.9,75,0.00,,,0.00,WUHU216HW,2013-02-10 04:45:00,
2013-02-09 21:50:00,21.8,15.7,29.82,SSW,203,0.0,0.9,77,0.00,,,0.00,WUHU216HW,2013-02-10 04:50:00,
2013-02-09 21:55:00,21.8,15.7,29.82,SSW,203,0.0,0.7,77,0.00,,,0.00,WUHU216HW,2013-02-10 04:55:00,
2013-02-09 22:00:00,21.8,15.7,29.82,SSW,203,0.0,0.0,77,0.00,,,0.00,WUHU216HW,2013-02-10 05:00:00,
2013-02-09 22:05:00,21.8,15.3,29.82,SSW,203,0.0,0.0,76,0.00,,,0.00,WUHU216HW,2013-02-10 05:05:00,
2013-02-09 22:10:00,21.8,15.3,29.82,SSW,203,0.2,0.4,76,0.00,,,0.00,WUHU216HW,2013-02-10 05:10:00,
2013-02-09 22:15:00,21.8,15.7,29.82,SSW,203,0.0,0.7,77,0.00,,,0.00,WUHU216HW,2013-02-10 05:15:00,
2013-02-09 22:20:00,22.0,15.2,29.82,South,180,0.0,0.7,75,0.00,,,0.00,WUHU216HW,2013-02-10 05:20:00,
2013-02-09 22:25:00,22.0,15.2,29.82,South,180,0.0,0.4,75,0.00,,,0.00,WUHU216HW,2013-02-10 05:25:00,
2013-02-09 22:30:00,22.0,15.5,29.83,South,180,0.0,0.2,76,0.00,,,0.00,WUHU216HW,2013-02-10 05:30:00,
2013-02-09 22:35:00,22.1,15.7,29.83,South,180,0.0,0.0,76,0.00,,,0.00,WUHU216HW,2013-02-10 05:35:00,
2013-02-09 22:40:00,22.1,15.7,29.83,South,180,0.0,0.0,76,0.00,,,0.00,WUHU216HW,2013-02-10 05:40:00,
2013-02-09 22:45:00,22.0,15.9,29.83,South,180,0.0,0.0,77,0.00,,,0.00,WUHU216HW,2013-02-10 05:45:00,
2013-02-09 22:50:00,22.1,16.0,29.83,SSW,203,0.0,0.2,77,0.00,,,0.00,WUHU216HW,2013-02-10 05:50:00,
2013-02-09 22:55:00,22.3,15.6,29.83,SSW,203,0.0,0.9,75,0.00,,,0.00,WUHU216HW,2013-02-10 05:55:00,
2013-02-09 23:00:00,22.1,15.4,29.83,SSW,203,0.0,0.9,75,0.00,,,0.00,WUHU216HW,2013-02-10 06:00:00,
2013-02-09 23:05:00,22.1,15.7,29.83,SW,225,0.0,0.4,76,0.00,,,0.00,WUHU216HW,2013-02-10 06:05:00,
2013-02-09 23:10:00,22.1,15.4,29.83,SSW,203,0.0,0.7,75,0.00,,,0.00,WUHU216HW,2013-02-10 06:10:00,
2013-02-09 23:15:00,22.1,15.7,29.84,SSW,203,0.0,0.7,76,0.00,,,0.00,WUHU216HW,2013-02-10 06:15:00,
2013-02-09 23:20:00,22.1,15.4,29.84,SSW,203,0.0,0.4,75,0.00,,,0.00,WUHU216HW,2013-02-10 06:20:00,
2013-02-09 23:25:00,22.0,15.9,29.84,SSW,203,0.0,0.4,77,0.00,,,0.00,WUHU216HW,2013-02-10 06:25:00,
2013-02-09 23:30:00,22.1,15.4,29.84,SSW,203,0.0,0.4,75,0.00,,,0.00,WUHU216HW,2013-02-10 06:30:00,
2013-02-09 23:35:00,22.0,15.5,29.84,SSW,203,0.0,0.4,76,0.00,,,0.00,WUHU216HW,2013-02-10 06:35:00,
2013-02-09 23:40:00,22.1,15.4,29.84,SSW,203,0.2,0.7,75,0.00,,,0.00,WUHU216HW,2013-02-10 06:40:00,
2013-02-09 23:45:00,22.0,15.2,29.84,SSW,203,0.0,0.7,75,0.00,,,0.00,WUHU216HW,2013-02-10 06:45:00,
2013-02-09 23:50:00,22.0,15.5,29.84,SSW,203,0.0,0.4,76,0.00,,,0.00,WUHU216HW,2013-02-10 06:50:00,
2013-02-09 23:55:00,22.0,15.2,29.84,SSW,203,0.0,0.4,75,0.00,,,0.00,WUHU216HW,2013-02-10 06:55:00,